Regional Weather Roundup
Issued by NWS

Home | Current Version | Previous Version | Graphics & Text | Print | Product List | Glossary On
Versions: 1 2 3 4 5 6 7 8 9 10 11 12 13 14 15 16 17 18 19 20 21 22 23 24 25 26 27 28 29 30 31 32 33 34 35 36 37 38 39 40 41 42 43 44 45 46 47 48 49 50
000
ASUS43 KMKX 181411
RWRWI

WISCONSIN REGIONAL WEATHER ROUNDUP
NATIONAL WEATHER SERVICE MILWAUKEE/SULLIVAN WI
800 AM CST THU DEC 18 2014

NOTE: "FAIR" INDICATES FEW OR NO CLOUDS BELOW 12,000 FEET WITH NO
SIGNIFICANT WEATHER AND/OR OBSTRUCTIONS TO VISIBILITY.

WIZ001-002-006>008-014>016-023>028-181500-
NORTHWEST WISCONSIN

CITY           SKY/WX    TMP DP  RH WIND       PRES   REMARKS
SUPERIOR ARPT  CLOUDY    20  19  93 CALM      30.32S
ASHLAND        CLOUDY    22  19  89 E3        30.32S
HAYWARD        CLOUDY    22  17  81 NE3       30.27F
SIREN          CLOUDY    19  17  91 CALM      30.29S
CUMBERLAND     CLOUDY    21  18  86 CALM      30.26S
RICE LAKE      CLOUDY    22  19  87 NE5       30.29R WCI  16
CHETEK         CLOUDY    22  19  87 N5        30.28R WCI  16
LADYSMITH      CLOUDY    23  20  89 NE6       30.27S WCI  16
EAU CLAIRE     CLOUDY    22  19  89 CALM      30.29R
MENOMONIE      CLOUDY    23  19  86 CALM      30.29R
NEW RICHMOND   CLOUDY    21  19  91 E5        30.29R WCI  15
OSCEOLA        CLOUDY    20  18  91 CALM      30.32S
$$

WIZ003>005-009-010-017-018-181500-
NORTH CENTRAL WISCONSIN

CITY           SKY/WX    TMP DP  RH WIND       PRES   REMARKS
MANITOWISH WTR CLOUDY    19  17  92 E6        30.24F WCI  11
ARBOR VITAE    CLOUDY    22  19  87 NE7       30.24F WCI  13
WOODRUFF       CLOUDY    22  19  87 NE7       30.24F WCI  13
RHINELANDER    CLOUDY    19  16  88 NE6       30.23F WCI  11
EAGLE RIVER    CLOUDY    20  16  82 NE8       30.24S WCI  11
LAND O LAKES   CLOUDY    20  17  86 NE3       30.25S
PHILLIPS       CLOUDY    20  17  89 NE7       30.23F WCI  11
TOMAHAWK       CLOUDY    20  17  88 NE5       30.25S WCI  14
MEDFORD        CLOUDY    21  18  86 NE6       30.23R WCI  13
MERRILL        CLOUDY    22  19  87 E8        30.24F WCI  12
$$

WIZ029-030-035-036-043>047-181500-
CENTRAL WISCONSIN

CITY           SKY/WX    TMP DP  RH WIND       PRES   REMARKS
WAUSAU         CLOUDY    24  19  81 VRB5      30.23S WCI  18
MOSINEE        CLOUDY    23  21  93 NE5       30.25S WCI  17
MARSHFIELD     CLOUDY    24  20  84 N7        30.24S WCI  16
STEVENS POINT  CLOUDY    23  18  83 NE5       30.25S WCI  16
WAUPACA        CLOUDY    28  21  75 NE5       30.26S WCI  23
WAUTOMA        CLOUDY    24  20  85 CALM      30.27R
WISC RAPIDS    CLOUDY    23  19  85 CALM      30.27S
CAMP DOUGLAS   CLOUDY    21  21 100 W2        30.28R
$$

WIZ011>013-019>022-031-037>040-048>050-181500-
NORTHEAST WISCONSIN

CITY           SKY/WX    TMP DP  RH WIND       PRES   REMARKS
ANTIGO         CLOUDY    20  18  90 NE9       30.23F WCI  10
SHAWANO        CLOUDY    27  21  79 NE9       30.28S WCI  18
OCONTO         CLOUDY    26  20  78 N7        30.28R WCI  19
STURGEON BAY   CLOUDY    27  19  74 N8G20     30.27R WCI  18
GREEN BAY      CLOUDY    26  20  77 N12       30.27S WCI  16
MANITOWOC      CLOUDY    27  23  85 N8        30.26R WCI  19
APPLETON       CLOUDY    27  19  74 NE9       30.26R WCI  17
CLINTONVILLE   CLOUDY    27  19  74 NE10      30.26S WCI  17
OSHKOSH        CLOUDY    26  21  81 NW5       30.26R WCI  20
$$

WIZ032>034-041-042-053>061-181500-
SOUTHWEST WISCONSIN

CITY           SKY/WX    TMP DP  RH WIND       PRES   REMARKS
LA CROSSE      CLOUDY    22  16  78 CALM      30.31R
SPARTA         CLOUDY    21  17  84 CALM      30.30R
VIROQUA        CLOUDY    20  18  93 CALM      30.26R
BOSCOBEL       PTCLDY    13   9  84 CALM      30.31S
PRAIRIE DU CHI PTCLDY    15  12  88 CALM      30.31S
PLATTEVILLE    PTCLDY    15  12  90 CALM      30.29R
$$

WIZ056-057-062-063-064-067-068-181500-
SOUTH CENTRAL WISCONSIN

CITY           SKY/WX    TMP DP  RH WIND       PRES   REMARKS
REEDSBURG      CLOUDY    22  18  83 SW3       30.28R
BARABOO/DELLS  CLOUDY    22  18  84 CALM      30.27R
LONE ROCK      CLOUDY    20  14  77 W5        30.30S WCI  13
MINERAL POINT  PTCLDY    18  14  86 CALM      30.26S
MADISON        CLOUDY    21  17  84 CALM      30.28R
MIDDLETON      CLOUDY    21  17  84 W3        30.28R
WATERTOWN      CLOUDY    22  20  93 SW6       30.27R WCI  15
MONROE         PTCLDY    18  14  86 W6        30.26S WCI   9
JANESVILLE     MOCLDY    19  16  86 W6        30.28R WCI  11
$$

WIZ051-052-058>065-066-070>072-181500-
SOUTHEAST WISCONSIN

CITY           SKY/WX    TMP DP  RH WIND       PRES   REMARKS
MILWAUKEE      MOCLDY    21  16  81 W6        30.27R WCI  13
WAUKESHA       CLOUDY    21  19  93 W5        30.27R FOG     WCI  15
MILWAUKEE/TIMM CLOUDY    25  19  80 CALM      30.27R
RACINE         CLOUDY    19  14  81 W8        30.28R WCI   9
BURLINGTON     PTCLDY    14  13  95 S3        30.28R
KENOSHA        PTCLDY    18  15  88 W5        30.27R WCI  11
FOND DU LAC    CLOUDY    25  21  85 NW5       30.26R WCI  19
SHEBOYGAN      CLOUDY    27  22  81 N5        30.25R WCI  22
WEST BEND      CLOUDY    25  21  86 CALM      30.25R
JUNEAU         CLOUDY    23  19  86 CALM      30.27R
$$

LSZ147-162-181500-
LAKE SUPERIOR

STATION/POSITION TIME  TEMP    WIND        PRES    WAVE
                       AIR SEA DIR/SP/G            HT/PER
                 (UTC) (F)     (DEG/KT/KT) (MB)    (FT/S)
DEVILS ISLAND    1400   27      80/  7/  9 1027.9F
PORT WING        1300   25      CALM  /  2 1026.8
SAXON HARBOR     1300   21      CALM  /  3 1026.4R
$$

LMZ867-665-643>646-181500-
LAKE MICHIGAN

STATION/POSITION TIME  TEMP    WIND        PRES    WAVE
                       AIR SEA DIR/SP/G            HT/PER
                 (UTC) (F)     (DEG/KT/KT) (MB)    (FT/S)
CHAMBERS ISLAND  1300   27      10/ 19/ 22 1024.7R
NORTHPORT PIER   1300   26      20/ 12/ 16 1024.7R
SISTER BAY       1343           30/  5/  7   N/A
ALGOMA LAKESHORE 1314           10/ 11/ 13   N/A
KEWAUNEE LAKESHO 1300   27     350/  5/ 10 1023.5R
SHEBOYGAN LAKESH 1400   28 34  320/ 10/ 13 1025.7R
PORT WASHINGTON  1300   25     300/  6/  8 1025.1S
MILWAUKEE LAKESH 1300   24     300/  5/  7   N/A
KENOSHA   LAKESH 1400   20     250/ 10/ 10 1025.4R
$$

TC  - TEMPERATURE IN CELSIUS
VSB - VISIBILITY IN STATUTE MILES
WCI - WIND CHILL INDEX
HX  - HEAT INDEX



USA.gov is the U.S. government's official web portal to all federal, state and local government web resources and services.